Location: Burzi?i
(45.0869°N, 16.0577°E)
Time: 04:33:12
(UTC+00:00)

CZ-4B R/B - Pass Details

Date: 29 October 2020
Orbit: 388 x 461 km, 97.6° (Epoch: 01 December)

Event Time Altitude Azimuth Distance (km) Brightness Sun altitude
Rises 17:07:23 0° 3° (N) 2,388 5.0 -14.6°
Reaches altitude 10° 17:09:32 10° 354° (N) 1,503 4.1 -15.0°
Maximum altitude 17:12:26 32° 289° (WNW) 736 3.1 -15.5°
Drops below altitude 10° 17:15:14 10° 225° (SW) 1,457 4.7 -16.0°
Sets 17:17:17 0° 214° (SW) 2,300 5.6 -16.3°
